STARLINK-32314, 61709

Orbit data source: Space-Track

STARLINK-32314, 61709 is a payload satellite owned by SpaceX/Seattle (US) in LEO that was launched on Wed, 30 Oct 2024 UTC via an FALCON 9 launch vehicle from the Air Force Eastern Test Range (AFETR). Payload-class satellites include a variety of spacecraft equipped with specific instruments for various scientific and technological missions. These include communications satellites like Starlink; space stations such as the ISS; scientific satellites like the Hubble; Earth observation satellites from companies like Planet Labs, Umbra, and HawkEye 360; GPS; miniature CubeSats for education and research; and military/defense satellites.

Loading next visibility...
Identifier
61709, 2024-196C
Orbit
LEO
Country
Flag of USUS
Related business
Manufacturer
SpaceX/Seattle
Mission
Operational Commercial Communications
Bus & Motor
STARLINK V2M, Unknown motor
Mass
730 kg wet, ~700 kg dry
Launch date (UTC)
2024-10-30 (2 years ago)
Launch vehicle
FALCON 9
Launch site
Air Force Eastern Test Range (AFETR)
Object type
Payload
Rocket body
Debris
Shape & HBR
Box + 2 Pan, 17.7 m
Radar Cross Section
33.884 m², Large (>1 m²)

Expand to show TLE details & history
Last TLE update: 19 hours ago

TLE from 19 hours ago
0 STARLINK-32314
1 61709U 24196C   26257.54191083  .00000357  00000-0  21694-4 0  9999
2 61709  53.1598 301.8095 0001277  90.1144 270.0005 15.34395220106104
Epoch: 2026-09-14T13:00Z
TLE epoch observation values (Epoch: 2026-09-14T13:00:21.095Z)
Latitude
-0.00003°
Longitude
113.20086°
Altitude
463.619 km
Speed
7.636 km/s
True Right ascension
20h 07m 14s
True Declination
0° 00' 00"
Sunlit
Object was in full shadow at epoch
Visualization orbit readout
Latitude
Unknown
Longitude
Unknown
Altitude
Unknown
Speed
Unknown
Apparent Right ascension
Unknown
Apparent Declination
Unknown
Sunlit
N/A
Visualization observer readout
Local Sidereal Time
00:29:02
Azimuth
Unknown
Elevation
Unknown
Doppler factor
Unknown
Orbital elements
Apogee altitude
463.848 km
Perigee altitude
462.101 km
Semi-major axis
6,841.111 km
Eccentricity
0.00013
Inclination
53.1598°
RAAN
301.8095°
Arg. of periapsis
90.1144°
True anomaly
269.98587°
Mean anomaly
270.0005°
Eccentric anomaly
269.99318°
Mean motion
3.83578 °/min
Orbital period
93.85 mins
BSTAR
0.000021694
Loading maneuver chart data...
Computing Atmospheric mass density...
Loading historical data...
Loading historical data...
Loading historical data...
Loading historical data...
Loading historical data...
Loading historical data...
Loading historical data...

Documentation

Showing up to 5 results
|